Pian Rosa, Italy

6:10 AM CET on December 04, 2016 (GMT +0100)
Pian Rosa

Weather History for LIMH - November, 2012

Change the Weather History Date:

Friday, November 16, 2012

  Actual Average Record
Temperature  
Mean Temperature 30 °F -  
Max Temperature 33 °F 13 °F 33 °F (2012)
Min Temperature 28 °F 4 °F -4 °F (1998)
Degree Days  
Heating Degree Days 34    
Moisture  
Dew Point -18 °F    
Average Humidity 10    
Maximum Humidity 15    
Minimum Humidity 4    
Precipitation  
Precipitation 0.00 in - - ()
Sea Level Pressure  
Sea Level Pressure 30.23 in    
Wind  
Wind Speed 10 mph ()    
Max Wind Speed 16 mph    
Max Gust Speed -    
Visibility 7.2 miles    
Events      
Averages and records for this station are not official NWS values.
T = Trace of Precipitation, MM = Missing Value Source: Averaged Metar Reports

Daily Weather History Graph

Daily Weather History Graph

Search for Another Location

Airport or City:

Trip Planner

Search our weather history database for the weather conditions in past years. The results will help you decide how hot, cold, wet, or windy it might be!

Date:

Astronomy

Nov. 16, 2012 Rise Set
Actual Time 7:31 AM CET 4:56 PM CET
Civil Twilight 6:58 AM CET 5:28 PM CET
Nautical Twilight 6:22 AM CET 6:05 PM CET
Astronomical Twilight 5:47 AM CET 6:40 PM CET
Moon 10:13 AM CET (11/16) 7:34 PM CET (11/16)
Length of Visible Light 10h 30m
Length of Day
9h 25m
Waxing Crescent, 9% of the Moon is Illuminated
Nov 16
Waxing Crescent
Nov 20
First Quarter
Nov 28
Full
Dec 6
Last Quarter
Dec 13
New

Hourly Weather History & Observations

Time (CET) Temp. Windchill Dew Point Humidity Pressure Visibility Wind Dir Wind Speed Gust Speed Precip Events Conditions
12:55 AM 30.2 °F 18.9 °F -20.2 °F 10% 30.27 in - ENE 16.1 mph - N/A   Clear
1:00 AM 30 °F - -20 °F 4%  in 6 mi ENE 16.1 mph - -  
1:55 AM 30.2 °F 19.8 °F -20.2 °F 10% 30.27 in - ENE 13.8 mph - N/A   Clear
2:55 AM 30.2 °F 19.8 °F -20.2 °F 10% 30.24 in - ENE 13.8 mph - N/A   Clear
3:55 AM 30.2 °F 19.8 °F -20.2 °F 10% 30.24 in - ENE 13.8 mph - N/A   Clear
4:00 AM 30 °F - -20 °F 4%  in 6 mi ENE 13.8 mph - -  
4:55 AM 30.2 °F 19.8 °F -20.2 °F 10% 30.24 in - ENE 13.8 mph - N/A   Clear
5:55 AM 28.4 °F 16.6 °F -20.2 °F 11% 30.24 in - ENE 16.1 mph - N/A   Clear
6:55 AM 28.4 °F 16.6 °F -22.0 °F 10% 30.24 in - ENE 16.1 mph - N/A   Clear
7:00 AM 28 °F - -21 °F 4%  in 12 mi ENE 16.1 mph - -  
7:55 AM 30.2 °F 19.8 °F -20.2 °F 10% 30.24 in - ENE 13.8 mph - N/A   Clear
8:55 AM 28.4 °F 17.5 °F -20.2 °F 11% 30.24 in - ENE 13.8 mph - N/A   Clear
10:00 AM 30 °F - -20 °F 4%  in 31 mi ENE 11.5 mph - -  
10:55 AM 28.4 °F 21.2 °F -16.6 °F 13% 30.27 in - ENE 6.9 mph - N/A   Clear
11:55 AM 30.2 °F 25.4 °F -14.8 °F 14% 30.24 in - SE 4.6 mph - N/A   Clear
12:55 PM 32.0 °F 27.5 °F -13.0 °F 14% 30.24 in - SSE 4.6 mph - N/A   Clear
1:00 PM 32 °F - -13 °F 5%  in 47 mi SSE 4.6 mph - -  
1:55 PM 32.0 °F 27.5 °F -14.8 °F 13% 30.24 in - SSW 4.6 mph - N/A   Clear
2:55 PM 32.0 °F 26.4 °F -18.4 °F 11% 30.21 in - SSW 5.8 mph - N/A   Clear
3:55 PM 32.0 °F 27.5 °F -14.8 °F 13% 30.21 in - SSW 4.6 mph - N/A   Clear
4:00 PM 32 °F - -15 °F 4%  in 47 mi SSW 4.6 mph - -  
4:55 PM 30.2 °F 23.4 °F -13.0 °F 15% 30.21 in - South 6.9 mph - N/A   Clear
5:55 PM 30.2 °F 25.4 °F -14.8 °F 14% 30.21 in - SSW 4.6 mph - N/A   Clear
6:55 PM 28.4 °F 23.3 °F -16.6 °F 13% 30.21 in - South 4.6 mph - N/A   Clear
7:00 PM 29 °F - -16 °F 5%  in 6 mi South 4.6 mph - -  
7:55 PM 28.4 °F 22.2 °F -14.8 °F 15% 30.21 in - South 5.8 mph - N/A   Clear
8:55 PM 28.4 °F 22.2 °F -16.6 °F 13% 30.21 in - South 5.8 mph - N/A   Clear
9:55 PM 28.4 °F 22.2 °F -16.6 °F 13% 30.18 in - South 5.8 mph - N/A   Clear
10:00 PM 28 °F - -16 °F 5%  in 6 mi South 5.8 mph - -  
10:55 PM 28.4 °F 22.2 °F -16.6 °F 13% 30.18 in - SSW 5.8 mph - N/A   Clear
11:55 PM 28.4 °F 22.2 °F -16.6 °F 13% 30.18 in - South 5.8 mph - N/A   Clear